Date String (YYYY-MM-DD hh:mm:ss) UTC,Instrument flags,Ambient pressure (hPa),Sample flow (lpm),Bypass flow (lpm),Sample temperature (°C),Ambient temperature (°C),ASC tube jacket temperature (°C),LED temperature (°C),Box temperature (°C),Sample RH (%),Span deviation,Mass concentration (μg/m³),Mass concentration (μg/m³),Mass concentration (μg/m³)
DateTimeUTC,F1_M11,P_M11,Q1_M11,Q2_M11,T1_M11,T2_M11,T3_M11,T4_M11,T5_M11,U1_M11,ZSPAN_M11,X0_M11,X2_M11,X1_M11
2021-11-30 01:00:00,,0827.2,5.00,0.00,29.9,26.5,00.0,39.0,31.2,10.7,0000.0,0007.34,0001.67,0000.42
2021-11-30 01:01:00,,0827.2,5.00,0.00,29.8,26.9,00.0,38.9,31.3,10.7,0000.0,0007.11,0001.57,0000.42
2021-11-30 01:02:00,,0827.2,4.98,0.00,29.8,27.3,00.0,38.9,31.3,10.7,0000.0,0007.58,0001.56,0000.42
2021-11-30 01:03:00,,0827.2,5.01,0.00,29.8,27.7,00.0,38.9,31.4,10.8,0000.0,0007.16,0001.53,0000.41
2021-11-30 01:04:00,,0827.2,5.00,0.00,29.8,28.0,00.0,38.9,31.4,10.8,0000.0,0007.35,0001.54,0000.40
2021-11-30 01:05:00,,0827.2,5.00,0.00,29.8,28.2,00.0,38.9,31.4,10.8,0000.0,0008.38,0001.53,0000.40
2021-11-30 01:06:00,,0827.2,5.00,0.00,29.8,28.3,00.0,38.8,31.5,10.8,0000.0,0008.58,0001.52,0000.39
2021-11-30 01:07:00,,0827.2,5.00,0.00,29.8,28.5,00.0,38.8,31.5,10.8,0000.0,0008.35,0001.47,0000.38
2021-11-30 01:08:00,,0827.2,4.98,0.00,29.8,28.6,00.0,38.9,31.5,10.8,0000.0,0008.35,0001.48,0000.38
2021-11-30 01:09:00,,0827.2,5.02,0.00,29.9,28.7,00.0,38.9,31.6,10.8,0000.0,0008.32,0001.49,0000.38
2021-11-30 01:10:00,,0827.2,5.00,0.00,29.9,28.8,00.0,38.9,31.6,10.8,0000.0,0009.22,0001.54,0000.38
2021-11-30 01:11:00,,0827.2,4.99,0.00,29.9,28.9,00.0,38.9,31.7,10.8,0000.0,0009.42,0001.61,0000.39
2021-11-30 01:12:00,,0827.2,5.00,0.00,29.9,28.9,00.0,38.9,31.7,10.8,0000.0,0009.42,0001.62,0000.39
2021-11-30 01:13:00,,0827.3,5.01,0.00,30.0,29.0,00.0,38.9,31.7,10.8,0000.0,0008.89,0001.57,0000.39
2021-11-30 01:14:00,,0827.2,4.99,0.00,30.0,29.0,00.0,38.9,31.7,10.8,0000.0,0008.89,0001.58,0000.39
2021-11-30 01:15:00,,0827.3,5.00,0.00,30.0,29.1,00.0,38.9,31.8,10.8,0000.0,0008.35,0001.52,0000.39
2021-11-30 01:16:00,,0827.2,5.02,0.00,30.0,29.1,00.0,38.9,31.8,10.8,0000.0,0007.34,0001.54,0000.39
2021-11-30 01:17:00,,0827.2,4.99,0.00,30.1,29.1,00.0,38.9,31.8,10.8,0000.0,0007.79,0001.56,0000.40
2021-11-30 01:18:00,,0827.2,5.01,0.00,30.1,29.2,00.0,39.0,31.9,10.7,0000.0,0008.45,0001.57,0000.40
2021-11-30 01:19:00,,0827.3,5.00,0.00,30.1,29.2,00.0,39.0,31.9,10.7,0000.0,0009.14,0001.59,0000.42
2021-11-30 01:20:00,,0827.3,4.98,0.00,30.1,29.3,00.0,39.0,31.9,10.8,0000.0,0009.87,0001.56,0000.43
2021-11-30 01:21:00,,0827.2,5.01,0.00,30.2,29.3,00.0,39.0,31.9,10.7,0000.0,0008.90,0001.49,0000.43
2021-11-30 01:22:00,,0827.2,5.00,0.00,30.2,29.3,00.0,39.0,32.0,10.7,0000.0,0008.85,0001.48,0000.42
2021-11-30 01:23:00,,0827.3,5.01,0.00,30.2,29.3,00.0,39.1,32.0,10.7,0000.0,0009.04,0001.53,0000.42
2021-11-30 01:24:00,,0827.2,4.99,0.00,30.2,29.4,00.0,39.1,32.0,10.7,0000.0,0009.16,0001.57,0000.43
2021-11-30 01:25:00,,0827.2,4.99,0.00,30.2,29.4,00.0,39.1,32.0,10.7,0000.0,0009.15,0001.54,0000.43
2021-11-30 01:26:00,,0827.1,5.01,0.00,30.2,29.4,00.0,39.1,32.0,10.7,0000.0,0009.16,0001.56,0000.45
2021-11-30 01:27:00,,0827.2,5.00,0.00,30.3,29.4,00.0,39.1,32.0,10.7,0000.0,0009.61,0001.63,0000.45
2021-11-30 01:28:00,,0827.2,4.99,0.00,30.3,29.4,00.0,39.2,32.0,10.7,0000.0,0009.45,0001.67,0000.46
2021-11-30 01:29:00,,0827.2,5.00,0.00,30.3,29.4,00.0,39.2,32.0,10.5,0000.0,0009.27,0001.69,0000.47
2021-11-30 01:30:00,,0827.2,5.01,0.00,30.3,29.4,00.0,39.2,32.1,10.6,0000.0,0010.37,0001.77,0000.47
2021-11-30 01:31:00,,0827.3,5.00,0.00,30.3,29.5,00.0,39.2,32.1,10.6,0000.0,0009.91,0001.84,0000.48
2021-11-30 01:32:00,,0827.4,5.00,0.00,30.4,29.5,00.0,39.2,32.1,10.6,0000.0,0010.07,0001.89,0000.47
2021-11-30 01:33:00,,0827.3,4.99,0.00,30.4,29.5,00.0,39.2,32.1,10.6,0000.0,0010.88,0001.91,0000.48
2021-11-30 01:34:00,,0827.2,5.01,0.00,30.4,29.4,00.0,39.3,32.1,10.6,0000.0,0011.27,0001.88,0000.49
2021-11-30 01:35:00,,0827.2,5.01,0.00,30.3,27.5,00.0,39.2,31.7,10.6,0000.0,0011.77,0001.92,0000.50
2021-11-30 01:36:00,,0827.2,4.98,0.00,30.1,26.3,00.0,39.2,31.4,10.7,0000.0,0012.15,0001.98,0000.51
2021-11-30 01:37:00,,0827.2,5.01,0.00,30.0,26.4,00.0,39.2,31.3,10.8,0000.0,0012.14,0002.05,0000.51
2021-11-30 01:38:00,,0827.2,4.99,0.00,29.9,26.8,00.0,39.1,31.4,10.9,0000.0,0012.32,0002.05,0000.51
2021-11-30 01:39:00,,0827.2,5.00,0.00,29.9,27.2,00.0,39.1,31.4,10.9,0000.0,0013.58,0002.08,0000.51
2021-11-30 01:40:00,,0827.2,5.01,0.00,29.9,27.6,00.0,39.0,31.5,10.9,0000.0,0014.36,0002.07,0000.50
2021-11-30 01:41:00,,0827.2,5.00,0.00,29.9,27.8,00.0,39.0,31.5,10.9,0000.0,0012.80,0002.05,0000.49
2021-11-30 01:42:00,,0827.2,4.99,0.00,29.9,28.1,00.0,39.0,31.5,10.9,0000.0,0012.47,0001.97,0000.49
2021-11-30 01:43:00,,0827.3,5.01,0.00,29.9,28.2,00.0,39.0,31.5,10.9,0000.0,0013.17,0001.99,0000.50
2021-11-30 01:44:00,,0827.2,5.00,0.00,29.9,28.4,00.0,38.9,31.6,10.9,0000.0,0013.27,0002.01,0000.50
2021-11-30 01:45:00,,0827.3,5.00,0.00,29.9,28.5,00.0,38.9,31.6,10.9,0000.0,0012.94,0002.02,0000.49
2021-11-30 01:46:00,,0827.3,5.00,0.00,29.9,28.6,00.0,38.9,31.6,10.9,0000.0,0012.47,0001.94,0000.49
2021-11-30 01:47:00,,0827.1,5.01,0.00,29.9,28.6,00.0,38.9,31.6,10.9,0000.0,0012.96,0001.95,0000.50
2021-11-30 01:48:00,,0827.2,5.00,0.00,29.9,28.7,00.0,38.9,31.6,10.9,0000.0,0014.00,0002.03,0000.51
2021-11-30 01:49:00,,0827.2,4.99,0.00,29.9,28.7,00.0,38.9,31.6,10.9,0000.0,0014.77,0002.10,0000.53
2021-11-30 01:50:00,,0827.2,5.01,0.00,29.9,28.8,00.0,38.9,31.6,10.9,0000.0,0012.96,0002.03,0000.53
2021-11-30 01:51:00,,0827.2,5.00,0.00,29.9,28.8,00.0,38.9,31.6,10.8,0000.0,0011.77,0002.03,0000.54
2021-11-30 01:52:00,,0827.2,5.00,0.00,29.9,28.8,00.0,38.9,31.7,10.9,0000.0,0012.01,0002.11,0000.56
2021-11-30 01:53:00,,0827.2,5.00,0.00,29.9,28.9,00.0,38.9,31.7,10.9,0000.0,0012.04,0002.11,0000.56
2021-11-30 01:54:00,,0827.2,5.00,0.00,29.9,28.9,00.0,38.9,31.7,10.9,0000.0,0011.48,0002.12,0000.57
2021-11-30 01:55:00,,0827.2,5.01,0.00,30.0,29.0,00.0,38.9,31.7,10.8,0000.0,0010.92,0002.17,0000.57
2021-11-30 01:56:00,,0827.1,5.00,0.00,30.0,29.0,00.0,38.9,31.7,10.8,0000.0,0011.46,0002.26,0000.57
2021-11-30 01:57:00,,0827.1,4.99,0.00,30.0,29.0,00.0,38.9,31.8,10.7,0000.0,0012.22,0002.32,0000.58
2021-11-30 01:58:00,,0827.2,5.01,0.00,30.0,29.0,00.0,38.9,31.8,10.5,0000.0,0011.37,0002.19,0000.56
2021-11-30 01:59:00,,0827.2,5.01,0.00,30.0,29.1,00.0,39.0,31.8,10.7,0000.0,0010.04,0002.05,0000.54
